Year,Month,Day,Hour,Minute,Value (Times are PST for temperature in C)
2008,10,23,00,00,9.20
2008,10,23,00,01,9.20
2008,10,23,00,02,9.20
2008,10,23,00,03,9.20
2008,10,23,00,04,9.20
2008,10,23,00,05,9.20
2008,10,23,00,06,9.20
2008,10,23,00,07,9.20
2008,10,23,00,08,9.20
2008,10,23,00,09,9.20
2008,10,23,00,10,9.20
2008,10,23,00,11,9.20
2008,10,23,00,12,9.20
2008,10,23,00,13,9.20
2008,10,23,00,14,9.20
2008,10,23,00,15,9.20
2008,10,23,00,16,9.20
2008,10,23,00,17,9.20
2008,10,23,00,18,9.20
2008,10,23,00,19,9.20
2008,10,23,00,20,9.20
2008,10,23,00,21,9.20
2008,10,23,00,22,9.20
2008,10,23,00,23,9.20
2008,10,23,00,24,9.20
2008,10,23,00,25,9.20
2008,10,23,00,26,9.20
2008,10,23,00,27,9.20
2008,10,23,00,28,9.20
2008,10,23,00,29,9.30
2008,10,23,00,30,9.30
2008,10,23,00,31,9.30
2008,10,23,00,32,9.30
2008,10,23,00,33,9.30
2008,10,23,00,34,9.30
2008,10,23,00,35,9.30
2008,10,23,00,36,9.30
2008,10,23,00,37,9.30
2008,10,23,00,38,9.30
2008,10,23,00,39,9.30
2008,10,23,00,40,9.30
2008,10,23,00,41,9.30
2008,10,23,00,42,9.30
2008,10,23,00,43,9.20
2008,10,23,00,44,9.20
2008,10,23,00,45,9.20
2008,10,23,00,46,9.20
2008,10,23,00,47,9.20
2008,10,23,00,48,9.20
2008,10,23,00,49,9.20
2008,10,23,00,50,9.20
2008,10,23,00,51,9.20
2008,10,23,00,52,9.20
2008,10,23,00,53,9.20
2008,10,23,00,54,9.20
2008,10,23,00,55,9.20
2008,10,23,00,56,9.20
2008,10,23,00,57,9.20
2008,10,23,00,58,9.20
2008,10,23,00,59,9.20
2008,10,23,01,00,9.20
2008,10,23,01,01,9.20
2008,10,23,01,02,9.20
2008,10,23,01,03,9.20
2008,10,23,01,04,9.20
2008,10,23,01,05,9.20
2008,10,23,01,06,9.20
2008,10,23,01,07,9.20
2008,10,23,01,08,9.20
2008,10,23,01,09,9.20
2008,10,23,01,10,9.20
2008,10,23,01,11,9.20
2008,10,23,01,12,9.20
2008,10,23,01,13,9.20
2008,10,23,01,14,9.20
2008,10,23,01,15,9.20
2008,10,23,01,16,9.20
2008,10,23,01,17,9.20
2008,10,23,01,18,9.20
2008,10,23,01,19,9.20
2008,10,23,01,20,9.20
2008,10,23,01,21,9.20
2008,10,23,01,22,9.20
2008,10,23,01,23,9.20
2008,10,23,01,24,9.20
2008,10,23,01,25,9.20
2008,10,23,01,26,9.20
2008,10,23,01,27,9.20
2008,10,23,01,28,9.20
2008,10,23,01,29,9.20
2008,10,23,01,30,9.20
2008,10,23,01,31,9.20
2008,10,23,01,32,9.20
2008,10,23,01,33,9.20
2008,10,23,01,34,9.20
2008,10,23,01,35,9.20
2008,10,23,01,36,9.10
2008,10,23,01,37,9.10
2008,10,23,01,38,9.10
2008,10,23,01,39,9.10
2008,10,23,01,40,9.10
2008,10,23,01,41,9.10
2008,10,23,01,42,9.10
2008,10,23,01,43,9.10
2008,10,23,01,44,9.10
2008,10,23,01,45,9.10
2008,10,23,01,46,9.10
2008,10,23,01,47,9.10
2008,10,23,01,48,9.10
2008,10,23,01,49,9.10
2008,10,23,01,50,9.10
2008,10,23,01,51,9.10
2008,10,23,01,52,9.00
2008,10,23,01,53,9.00
2008,10,23,01,54,9.00
2008,10,23,01,55,9.00
2008,10,23,01,56,9.00
2008,10,23,01,57,9.00
2008,10,23,01,58,9.00
2008,10,23,01,59,9.00
2008,10,23,02,00,9.00
2008,10,23,02,01,9.00
2008,10,23,02,02,9.00
2008,10,23,02,03,8.90
2008,10,23,02,04,8.90
2008,10,23,02,05,8.90
2008,10,23,02,06,8.90
2008,10,23,02,07,8.90
2008,10,23,02,08,8.90
2008,10,23,02,09,8.90
2008,10,23,02,10,8.90
2008,10,23,02,11,8.90
2008,10,23,02,12,8.90
2008,10,23,02,13,8.90
2008,10,23,02,14,8.90
2008,10,23,02,15,8.90
2008,10,23,02,16,8.90
2008,10,23,02,17,8.90
2008,10,23,02,18,8.90
2008,10,23,02,19,8.90
2008,10,23,02,20,8.90
2008,10,23,02,21,8.90
2008,10,23,02,22,8.90
2008,10,23,02,23,8.80
2008,10,23,02,24,8.80
2008,10,23,02,25,8.80
2008,10,23,02,26,8.80
2008,10,23,02,27,8.80
2008,10,23,02,28,8.80
2008,10,23,02,29,8.80
2008,10,23,02,30,8.80
2008,10,23,02,31,8.80
2008,10,23,02,32,8.70
2008,10,23,02,33,8.70
2008,10,23,02,34,8.70
2008,10,23,02,35,8.70
2008,10,23,02,36,8.70
2008,10,23,02,37,8.70
2008,10,23,02,38,8.70
2008,10,23,02,39,8.70
2008,10,23,02,40,8.70
2008,10,23,02,41,8.70
2008,10,23,02,42,8.70
2008,10,23,02,43,8.70
2008,10,23,02,44,8.70
2008,10,23,02,45,8.70
2008,10,23,02,46,8.70
2008,10,23,02,47,8.70
2008,10,23,02,48,8.70
2008,10,23,02,49,8.70
2008,10,23,02,50,8.70
2008,10,23,02,51,8.70
2008,10,23,02,52,8.70
2008,10,23,02,53,8.70
2008,10,23,02,54,8.70
2008,10,23,02,55,8.70
2008,10,23,02,56,8.70
2008,10,23,02,57,8.70
2008,10,23,02,58,8.60
2008,10,23,02,59,8.60
2008,10,23,03,00,8.60
2008,10,23,03,01,8.50
2008,10,23,03,02,8.50
2008,10,23,03,03,8.50
2008,10,23,03,04,8.40
2008,10,23,03,05,8.40
2008,10,23,03,06,8.40
2008,10,23,03,07,8.40
2008,10,23,03,08,8.30
2008,10,23,03,09,8.30
2008,10,23,03,10,8.30
2008,10,23,03,11,8.30
2008,10,23,03,12,8.30
2008,10,23,03,13,8.30
2008,10,23,03,14,8.30
2008,10,23,03,15,8.30
2008,10,23,03,16,8.30
2008,10,23,03,17,8.30
2008,10,23,03,18,8.30
2008,10,23,03,19,8.30
2008,10,23,03,20,8.30
2008,10,23,03,21,8.30
2008,10,23,03,22,8.30
2008,10,23,03,23,8.30
2008,10,23,03,24,8.30
2008,10,23,03,25,8.20
2008,10,23,03,26,8.20
2008,10,23,03,27,8.20
2008,10,23,03,28,8.20
2008,10,23,03,29,8.20
2008,10,23,03,30,8.20
2008,10,23,03,31,8.20
2008,10,23,03,32,8.20
2008,10,23,03,33,8.10
2008,10,23,03,34,8.10
2008,10,23,03,35,8.10
2008,10,23,03,36,8.10
2008,10,23,03,37,8.10
2008,10,23,03,38,8.10
2008,10,23,03,39,8.10
2008,10,23,03,40,8.10
2008,10,23,03,41,8.00
2008,10,23,03,42,8.00
2008,10,23,03,43,8.00
2008,10,23,03,44,8.00
2008,10,23,03,45,7.90
2008,10,23,03,46,7.90
2008,10,23,03,47,7.90
2008,10,23,03,48,7.90
2008,10,23,03,49,7.90
2008,10,23,03,50,7.90
2008,10,23,03,51,7.90
2008,10,23,03,52,7.90
2008,10,23,03,53,7.90
2008,10,23,03,54,7.90
2008,10,23,03,55,7.90
2008,10,23,03,56,7.90
2008,10,23,03,57,7.90
2008,10,23,03,58,7.90
2008,10,23,03,59,7.90
2008,10,23,04,00,7.90
2008,10,23,04,01,7.90
2008,10,23,04,02,7.90
2008,10,23,04,03,7.90
2008,10,23,04,04,7.90
2008,10,23,04,05,7.90
2008,10,23,04,06,7.90
2008,10,23,04,07,7.90
2008,10,23,04,08,7.90
2008,10,23,04,09,7.80
2008,10,23,04,10,7.80
2008,10,23,04,11,7.80
2008,10,23,04,12,7.80
2008,10,23,04,13,7.80
2008,10,23,04,14,7.80
2008,10,23,04,15,7.80
2008,10,23,04,16,7.80
2008,10,23,04,17,7.80
2008,10,23,04,18,7.70
2008,10,23,04,19,7.80
2008,10,23,04,20,7.80
2008,10,23,04,21,7.80
2008,10,23,04,22,7.80
2008,10,23,04,23,7.80
2008,10,23,04,24,7.80
2008,10,23,04,25,7.80
2008,10,23,04,26,7.80
2008,10,23,04,27,7.80
2008,10,23,04,28,7.80
2008,10,23,04,29,7.80
2008,10,23,04,30,7.80
2008,10,23,04,31,7.80
2008,10,23,04,32,7.80
2008,10,23,04,33,7.80
2008,10,23,04,34,7.80
2008,10,23,04,35,7.80
2008,10,23,04,36,7.80
2008,10,23,04,37,7.80
2008,10,23,04,38,7.80
2008,10,23,04,39,7.80
2008,10,23,04,40,7.70
2008,10,23,04,41,7.70
2008,10,23,04,42,7.70
2008,10,23,04,43,7.70
2008,10,23,04,44,7.70
2008,10,23,04,45,7.60
2008,10,23,04,46,7.60
2008,10,23,04,47,7.60
2008,10,23,04,48,7.60
2008,10,23,04,49,7.50
2008,10,23,04,50,7.50
2008,10,23,04,51,7.50
2008,10,23,04,52,7.40
2008,10,23,04,53,7.40
2008,10,23,04,54,7.40
2008,10,23,04,55,7.40
2008,10,23,04,56,7.40
2008,10,23,04,57,7.40
2008,10,23,04,58,7.50
2008,10,23,04,59,7.50
2008,10,23,05,00,7.50
2008,10,23,05,01,7.50
2008,10,23,05,02,7.50
2008,10,23,05,03,7.50
2008,10,23,05,04,7.50
2008,10,23,05,05,7.50
2008,10,23,05,06,7.50
2008,10,23,05,07,7.50
2008,10,23,05,08,7.50
2008,10,23,05,09,7.50
2008,10,23,05,10,7.50
2008,10,23,05,11,7.50
2008,10,23,05,12,7.50
2008,10,23,05,13,7.50
2008,10,23,05,14,7.50
2008,10,23,05,15,7.40
2008,10,23,05,16,7.40
2008,10,23,05,17,7.40
2008,10,23,05,18,7.40
2008,10,23,05,19,7.30
2008,10,23,05,20,7.30
2008,10,23,05,21,7.30
2008,10,23,05,22,7.30
2008,10,23,05,23,7.30
2008,10,23,05,24,7.30
2008,10,23,05,25,7.30
2008,10,23,05,26,7.20
2008,10,23,05,27,7.20
2008,10,23,05,28,7.20
2008,10,23,05,29,7.20
2008,10,23,05,30,7.20
2008,10,23,05,31,7.20
2008,10,23,05,32,7.20
2008,10,23,05,33,7.20
2008,10,23,05,34,7.20
2008,10,23,05,35,7.20
2008,10,23,05,36,7.10
2008,10,23,05,37,7.10
2008,10,23,05,38,7.20
2008,10,23,05,39,7.20
2008,10,23,05,40,7.20
2008,10,23,05,41,7.20
2008,10,23,05,42,7.20
2008,10,23,05,43,7.20
2008,10,23,05,44,7.20
2008,10,23,05,45,7.20
2008,10,23,05,46,7.20
2008,10,23,05,47,7.20
2008,10,23,05,48,7.20
2008,10,23,05,49,7.20
2008,10,23,05,50,7.20
2008,10,23,05,51,7.10
2008,10,23,05,52,7.10
2008,10,23,05,53,7.10
2008,10,23,05,54,7.10
2008,10,23,05,55,7.10
2008,10,23,05,56,7.10
2008,10,23,05,57,7.10
2008,10,23,05,58,7.10
2008,10,23,05,59,7.10
2008,10,23,06,00,7.10
2008,10,23,06,01,7.10
2008,10,23,06,02,7.10
2008,10,23,06,03,7.10
2008,10,23,06,04,7.20
2008,10,23,06,05,7.20
2008,10,23,06,06,7.20
2008,10,23,06,07,7.20
2008,10,23,06,08,7.20
2008,10,23,06,09,7.20
2008,10,23,06,10,7.20
2008,10,23,06,11,7.20
2008,10,23,06,12,7.20
2008,10,23,06,13,7.10
2008,10,23,06,14,7.10
2008,10,23,06,15,7.10
2008,10,23,06,16,7.10
2008,10,23,06,17,7.10
2008,10,23,06,18,7.00
2008,10,23,06,19,7.00
2008,10,23,06,20,6.90
2008,10,23,06,21,6.90
2008,10,23,06,22,6.90
2008,10,23,06,23,6.90
2008,10,23,06,24,6.80
2008,10,23,06,25,6.80
2008,10,23,06,26,6.80
2008,10,23,06,27,6.80
2008,10,23,06,28,6.80
2008,10,23,06,29,6.70
2008,10,23,06,30,6.70
2008,10,23,06,31,6.70
2008,10,23,06,32,6.70
2008,10,23,06,33,6.70
2008,10,23,06,34,6.70
2008,10,23,06,35,6.70
2008,10,23,06,36,6.70
2008,10,23,06,37,6.70
2008,10,23,06,38,6.70
2008,10,23,06,39,6.70
2008,10,23,06,40,6.70
2008,10,23,06,41,6.70
2008,10,23,06,42,6.70
2008,10,23,06,43,6.70
2008,10,23,06,44,6.70
2008,10,23,06,45,6.70
2008,10,23,06,46,6.70
2008,10,23,06,47,6.60
2008,10,23,06,48,6.70
2008,10,23,06,49,6.70
2008,10,23,06,50,6.70
2008,10,23,06,51,6.70
2008,10,23,06,52,6.70
2008,10,23,06,53,6.70
2008,10,23,06,54,6.70
2008,10,23,06,55,6.70
2008,10,23,06,56,6.80
2008,10,23,06,57,6.80
2008,10,23,06,58,6.80
2008,10,23,06,59,6.80
2008,10,23,07,00,6.80
2008,10,23,07,01,6.80
2008,10,23,07,02,6.80
2008,10,23,07,03,6.80
2008,10,23,07,04,6.90
2008,10,23,07,05,6.90
2008,10,23,07,06,6.90
2008,10,23,07,07,6.90
2008,10,23,07,08,6.90
2008,10,23,07,09,7.00
2008,10,23,07,10,7.00
2008,10,23,07,11,7.00
2008,10,23,07,12,7.00
2008,10,23,07,13,7.00
2008,10,23,07,14,6.90
2008,10,23,07,15,6.90
2008,10,23,07,16,6.90
2008,10,23,07,17,6.90
2008,10,23,07,18,6.90
2008,10,23,07,19,6.90
2008,10,23,07,20,6.90
2008,10,23,07,21,7.00
2008,10,23,07,22,7.00
2008,10,23,07,23,7.00
2008,10,23,07,24,7.00
2008,10,23,07,25,7.00
2008,10,23,07,26,7.10
2008,10,23,07,27,7.00
2008,10,23,07,28,7.00
2008,10,23,07,29,7.00
2008,10,23,07,30,7.00
2008,10,23,07,31,7.00
2008,10,23,07,32,7.00
2008,10,23,07,33,7.00
2008,10,23,07,34,7.00
2008,10,23,07,35,6.90
2008,10,23,07,36,6.90
2008,10,23,07,37,6.90
2008,10,23,07,38,6.90
2008,10,23,07,39,6.90
2008,10,23,07,40,6.90
2008,10,23,07,41,6.90
2008,10,23,07,42,6.90
2008,10,23,07,43,6.90
2008,10,23,07,44,6.80
2008,10,23,07,45,6.80
2008,10,23,07,46,6.80
2008,10,23,07,47,6.80
2008,10,23,07,48,6.80
2008,10,23,07,49,6.80
2008,10,23,07,50,6.80
2008,10,23,07,51,6.80
2008,10,23,07,52,6.80
2008,10,23,07,53,6.80
2008,10,23,07,54,6.80
2008,10,23,07,55,6.80
2008,10,23,07,56,6.80
2008,10,23,07,57,6.80
2008,10,23,07,58,6.80
2008,10,23,07,59,6.80
2008,10,23,08,00,6.80
2008,10,23,08,01,6.80
2008,10,23,08,02,6.80
2008,10,23,08,03,6.80
2008,10,23,08,04,6.80
2008,10,23,08,05,6.80
2008,10,23,08,06,6.80
2008,10,23,08,07,6.80
2008,10,23,08,08,6.80
2008,10,23,08,09,6.80
2008,10,23,08,10,6.80
2008,10,23,08,11,6.80
2008,10,23,08,12,6.80
2008,10,23,08,13,6.90
2008,10,23,08,14,6.90
2008,10,23,08,15,6.90
2008,10,23,08,16,6.90
2008,10,23,08,17,6.90
2008,10,23,08,18,6.90
2008,10,23,08,19,7.00
2008,10,23,08,20,7.00
2008,10,23,08,21,7.00
2008,10,23,08,22,7.00
2008,10,23,08,23,7.10
2008,10,23,08,24,7.10
2008,10,23,08,25,7.20
2008,10,23,08,26,7.20
2008,10,23,08,27,7.20
2008,10,23,08,28,7.20
2008,10,23,08,29,7.20
2008,10,23,08,30,7.20
2008,10,23,08,31,7.20
2008,10,23,08,32,7.20
2008,10,23,08,33,7.20
2008,10,23,08,34,7.20
2008,10,23,08,35,7.20
2008,10,23,08,36,7.20
2008,10,23,08,37,7.20
2008,10,23,08,38,7.20
2008,10,23,08,39,7.20
2008,10,23,08,40,7.20
2008,10,23,08,41,7.20
2008,10,23,08,42,7.20
2008,10,23,08,43,7.20
2008,10,23,08,44,7.20
2008,10,23,08,45,7.20
2008,10,23,08,46,7.20
2008,10,23,08,47,7.20
2008,10,23,08,48,7.20
2008,10,23,08,49,7.30
2008,10,23,08,50,7.30
2008,10,23,08,51,7.30
2008,10,23,08,52,7.30
2008,10,23,08,53,7.30
2008,10,23,08,54,7.30
2008,10,23,08,55,7.30
2008,10,23,08,56,7.40
2008,10,23,08,57,7.40
2008,10,23,08,58,7.40
2008,10,23,08,59,7.40
2008,10,23,09,00,7.40
2008,10,23,09,01,7.40
2008,10,23,09,02,7.50
2008,10,23,09,03,7.50
2008,10,23,09,04,7.60
2008,10,23,09,05,7.60
2008,10,23,09,06,7.60
2008,10,23,09,07,7.60
2008,10,23,09,08,7.60
2008,10,23,09,09,7.60
2008,10,23,09,10,7.60
2008,10,23,09,11,7.60
2008,10,23,09,12,7.60
2008,10,23,09,13,7.60
2008,10,23,09,14,7.60
2008,10,23,09,15,7.60
2008,10,23,09,16,7.60
2008,10,23,09,17,7.60
2008,10,23,09,18,7.60
2008,10,23,09,19,7.60
2008,10,23,09,20,7.70
2008,10,23,09,21,7.70
2008,10,23,09,22,7.70
2008,10,23,09,23,7.70
2008,10,23,09,24,7.70
2008,10,23,09,25,7.70
2008,10,23,09,26,7.80
2008,10,23,09,27,7.80
2008,10,23,09,28,7.80
2008,10,23,09,29,7.80
2008,10,23,09,30,7.80
2008,10,23,09,31,7.80
2008,10,23,09,32,7.80
2008,10,23,09,33,7.80
2008,10,23,09,34,7.80
2008,10,23,09,35,7.80
2008,10,23,09,36,7.90
2008,10,23,09,37,7.90
2008,10,23,09,38,7.90
2008,10,23,09,39,7.90
2008,10,23,09,40,7.90
2008,10,23,09,41,7.90
2008,10,23,09,42,7.90
2008,10,23,09,43,7.90
2008,10,23,09,44,7.90
2008,10,23,09,45,7.90
2008,10,23,09,46,8.00
2008,10,23,09,47,8.00
2008,10,23,09,48,8.00
2008,10,23,09,49,8.00
2008,10,23,09,50,8.00
2008,10,23,09,51,8.00
2008,10,23,09,52,8.00
2008,10,23,09,53,8.00
2008,10,23,09,54,8.10
2008,10,23,09,55,8.10
2008,10,23,09,56,8.10
2008,10,23,09,57,8.10
2008,10,23,09,58,8.10
2008,10,23,09,59,8.10
2008,10,23,10,00,8.10
2008,10,23,10,01,8.10
2008,10,23,10,02,8.10
2008,10,23,10,03,8.10
2008,10,23,10,04,8.20
2008,10,23,10,05,8.20
2008,10,23,10,06,8.20
2008,10,23,10,07,8.20
2008,10,23,10,08,8.20
2008,10,23,10,09,8.20
2008,10,23,10,10,8.20
2008,10,23,10,11,8.20
2008,10,23,10,12,8.30
2008,10,23,10,13,8.30
2008,10,23,10,14,8.30
2008,10,23,10,15,8.40
2008,10,23,10,16,8.40
2008,10,23,10,17,8.50
2008,10,23,10,18,8.50
2008,10,23,10,19,8.60
2008,10,23,10,20,8.60
2008,10,23,10,21,8.70
2008,10,23,10,22,8.70
2008,10,23,10,23,8.70
2008,10,23,10,24,8.80
2008,10,23,10,25,8.80
2008,10,23,10,26,8.90
2008,10,23,10,27,8.90
2008,10,23,10,28,8.90
2008,10,23,10,29,8.90
2008,10,23,10,30,9.00
2008,10,23,10,31,9.10
2008,10,23,10,32,9.10
2008,10,23,10,33,9.20
2008,10,23,10,34,9.20
2008,10,23,10,35,9.30
2008,10,23,10,36,9.40
2008,10,23,10,37,9.50
2008,10,23,10,38,9.50
2008,10,23,10,39,9.60
2008,10,23,10,40,9.60
2008,10,23,10,41,9.70
2008,10,23,10,42,9.70
2008,10,23,10,43,9.80
2008,10,23,10,44,9.80
2008,10,23,10,45,9.80
2008,10,23,10,46,9.80
2008,10,23,10,47,9.90
2008,10,23,10,48,9.90
2008,10,23,10,49,9.90
2008,10,23,10,50,10.00
2008,10,23,10,51,10.00
2008,10,23,10,52,10.00
2008,10,23,10,53,10.10
2008,10,23,10,54,10.10
2008,10,23,10,55,10.10
2008,10,23,10,56,10.20
2008,10,23,10,57,10.20
2008,10,23,10,58,10.20
2008,10,23,10,59,10.20
2008,10,23,11,00,10.20
2008,10,23,11,01,10.20
2008,10,23,11,02,10.20
2008,10,23,11,03,10.30
2008,10,23,11,04,10.30
2008,10,23,11,05,10.30
2008,10,23,11,06,10.30
2008,10,23,11,07,10.30
2008,10,23,11,08,10.30
2008,10,23,11,09,10.40
2008,10,23,11,10,10.40
2008,10,23,11,11,10.40
2008,10,23,11,12,10.40
2008,10,23,11,13,10.50
2008,10,23,11,14,10.40
2008,10,23,11,15,10.50
2008,10,23,11,16,10.50
2008,10,23,11,17,10.60
2008,10,23,11,18,10.60
2008,10,23,11,19,10.60
2008,10,23,11,20,10.60
2008,10,23,11,21,10.60
2008,10,23,11,22,10.60
2008,10,23,11,23,10.50
2008,10,23,11,24,10.50
2008,10,23,11,25,10.60
2008,10,23,11,26,10.60
2008,10,23,11,27,10.60
2008,10,23,11,28,10.60
2008,10,23,11,29,10.70
2008,10,23,11,30,10.70
2008,10,23,11,31,10.70
2008,10,23,11,32,10.70
2008,10,23,11,33,10.70
2008,10,23,11,34,10.70
2008,10,23,11,35,10.80
2008,10,23,11,36,10.80
2008,10,23,11,37,10.80
2008,10,23,11,38,10.80
2008,10,23,11,39,10.80
2008,10,23,11,40,10.80
2008,10,23,11,41,10.80
2008,10,23,11,42,10.80
2008,10,23,11,43,10.90
2008,10,23,11,44,10.90
2008,10,23,11,45,10.90
2008,10,23,11,46,10.90
2008,10,23,11,47,10.90
2008,10,23,11,48,10.90
2008,10,23,11,49,10.90
2008,10,23,11,50,10.90
2008,10,23,11,51,10.90
2008,10,23,11,52,10.90
2008,10,23,11,53,10.90
2008,10,23,11,54,11.00
2008,10,23,11,55,11.00
2008,10,23,11,56,11.00
2008,10,23,11,57,11.00
2008,10,23,11,58,11.00
2008,10,23,11,59,11.00
2008,10,23,12,00,10.90
2008,10,23,12,01,10.90
2008,10,23,12,02,10.80
2008,10,23,12,03,10.80
2008,10,23,12,04,10.80
2008,10,23,12,05,10.80
2008,10,23,12,06,10.80
2008,10,23,12,07,10.70
2008,10,23,12,08,10.70
2008,10,23,12,09,10.80
2008,10,23,12,10,10.80
2008,10,23,12,11,10.80
2008,10,23,12,12,10.80
2008,10,23,12,13,10.80
2008,10,23,12,14,10.80
2008,10,23,12,15,10.80
2008,10,23,12,16,10.80
2008,10,23,12,17,10.80
2008,10,23,12,18,10.90
2008,10,23,12,19,10.90
2008,10,23,12,20,11.00
2008,10,23,12,21,11.00
2008,10,23,12,22,11.10
2008,10,23,12,23,11.10
2008,10,23,12,24,11.10
2008,10,23,12,25,11.20
2008,10,23,12,26,11.20
2008,10,23,12,27,11.20
2008,10,23,12,28,11.20
2008,10,23,12,29,11.20
2008,10,23,12,30,11.20
2008,10,23,12,31,11.30
2008,10,23,12,32,11.20
2008,10,23,12,33,11.20
2008,10,23,12,34,11.20
2008,10,23,12,35,11.20
2008,10,23,12,36,11.20
2008,10,23,12,37,11.10
2008,10,23,12,38,11.10
2008,10,23,12,39,11.10
2008,10,23,12,40,11.10
2008,10,23,12,41,11.10
2008,10,23,12,42,11.10
2008,10,23,12,43,11.10
2008,10,23,12,44,11.20
2008,10,23,12,45,11.10
2008,10,23,12,46,11.10
2008,10,23,12,47,11.10
2008,10,23,12,48,11.10
2008,10,23,12,49,11.20
2008,10,23,12,50,11.20
2008,10,23,12,51,11.20
2008,10,23,12,52,11.20
2008,10,23,12,53,11.20
2008,10,23,12,54,11.30
2008,10,23,12,55,11.30
2008,10,23,12,56,11.30
2008,10,23,12,57,11.40
2008,10,23,12,58,11.40
2008,10,23,12,59,11.40
2008,10,23,13,00,11.50
2008,10,23,13,01,11.40
2008,10,23,13,02,11.40
2008,10,23,13,03,11.40
2008,10,23,13,04,11.30
2008,10,23,13,05,11.30
2008,10,23,13,06,11.30
2008,10,23,13,07,11.40
2008,10,23,13,08,11.40
2008,10,23,13,09,11.40
2008,10,23,13,10,11.50
2008,10,23,13,11,11.50
2008,10,23,13,12,11.60
2008,10,23,13,13,11.60
2008,10,23,13,14,11.50
2008,10,23,13,15,11.50
2008,10,23,13,16,11.50
2008,10,23,13,17,11.40
2008,10,23,13,18,11.40
2008,10,23,13,19,11.40
2008,10,23,13,20,11.40
2008,10,23,13,21,11.30
2008,10,23,13,22,11.30
2008,10,23,13,23,11.30
2008,10,23,13,24,11.20
2008,10,23,13,25,11.20
2008,10,23,13,26,11.30
2008,10,23,13,27,11.30
2008,10,23,13,28,11.30
2008,10,23,13,29,11.30
2008,10,23,13,30,11.30
2008,10,23,13,31,11.30
2008,10,23,13,32,11.30
2008,10,23,13,33,11.30
2008,10,23,13,34,11.30
2008,10,23,13,35,11.30
2008,10,23,13,36,11.30
2008,10,23,13,37,11.30
2008,10,23,13,38,11.30
2008,10,23,13,39,11.30
2008,10,23,13,40,11.30
2008,10,23,13,41,11.30
2008,10,23,13,42,11.30
2008,10,23,13,43,11.40
2008,10,23,13,44,11.40
2008,10,23,13,45,11.40
2008,10,23,13,46,11.40
2008,10,23,13,47,11.30
2008,10,23,13,48,11.30
2008,10,23,13,49,11.40
2008,10,23,13,50,11.40
2008,10,23,13,51,11.40
2008,10,23,13,52,11.40
2008,10,23,13,53,11.50
2008,10,23,13,54,11.60
2008,10,23,13,55,11.60
2008,10,23,13,56,11.70
2008,10,23,13,57,11.70
2008,10,23,13,58,11.70
2008,10,23,13,59,11.70
2008,10,23,14,00,11.70
2008,10,23,14,01,11.50
2008,10,23,14,02,11.50
2008,10,23,14,03,11.40
2008,10,23,14,04,11.40
2008,10,23,14,05,11.30
2008,10,23,14,06,11.30
2008,10,23,14,07,11.40
2008,10,23,14,08,11.40
2008,10,23,14,09,11.40
2008,10,23,14,10,11.40
2008,10,23,14,11,11.40
2008,10,23,14,12,11.40
2008,10,23,14,13,11.40
2008,10,23,14,14,11.40
2008,10,23,14,15,11.40
2008,10,23,14,16,11.50
2008,10,23,14,17,11.50
2008,10,23,14,18,11.40
2008,10,23,14,19,11.40
2008,10,23,14,20,11.40
2008,10,23,14,21,11.40
2008,10,23,14,22,11.40
2008,10,23,14,23,11.40
2008,10,23,14,24,11.40
2008,10,23,14,25,11.40
2008,10,23,14,26,11.40
2008,10,23,14,27,11.40
2008,10,23,14,28,11.40
2008,10,23,14,29,11.40
2008,10,23,14,30,11.40
2008,10,23,14,31,11.30
2008,10,23,14,32,11.30
2008,10,23,14,33,11.30
2008,10,23,14,34,11.30
2008,10,23,14,35,11.30
2008,10,23,14,36,11.30
2008,10,23,14,37,11.40
2008,10,23,14,38,11.40
2008,10,23,14,39,11.40
2008,10,23,14,40,11.40
2008,10,23,14,41,11.40
2008,10,23,14,42,11.40
2008,10,23,14,43,11.40
2008,10,23,14,44,11.40
2008,10,23,14,45,11.40
2008,10,23,14,46,11.30
2008,10,23,14,47,11.20
2008,10,23,14,48,11.20
2008,10,23,14,49,11.20
2008,10,23,14,50,11.20
2008,10,23,14,51,11.20
2008,10,23,14,52,11.20
2008,10,23,14,53,11.20
2008,10,23,14,54,11.20
2008,10,23,14,55,11.20
2008,10,23,14,56,11.20
2008,10,23,14,57,11.20
2008,10,23,14,58,11.30
2008,10,23,14,59,11.30
2008,10,23,15,00,11.30
2008,10,23,15,01,11.40
2008,10,23,15,02,11.40
2008,10,23,15,03,11.50
2008,10,23,15,04,11.50
2008,10,23,15,05,11.40
2008,10,23,15,06,11.40
2008,10,23,15,07,11.30
2008,10,23,15,08,11.30
2008,10,23,15,09,11.20
2008,10,23,15,10,11.20
2008,10,23,15,11,11.10
2008,10,23,15,12,11.10
2008,10,23,15,13,11.10
2008,10,23,15,14,11.10
2008,10,23,15,15,11.20
2008,10,23,15,16,11.20
2008,10,23,15,17,11.30
2008,10,23,15,18,11.30
2008,10,23,15,19,11.40
2008,10,23,15,20,11.50
2008,10,23,15,21,11.60
2008,10,23,15,22,11.60
2008,10,23,15,23,11.70
2008,10,23,15,24,11.70
2008,10,23,15,25,11.80
2008,10,23,15,26,11.80
2008,10,23,15,27,11.80
2008,10,23,15,28,11.80
2008,10,23,15,29,11.80
2008,10,23,15,30,11.80
2008,10,23,15,31,11.90
2008,10,23,15,32,11.90
2008,10,23,15,33,11.90
2008,10,23,15,34,12.00
2008,10,23,15,35,12.00
2008,10,23,15,36,12.00
2008,10,23,15,37,12.00
2008,10,23,15,38,12.00
2008,10,23,15,39,12.00
2008,10,23,15,40,12.00
2008,10,23,15,41,12.00
2008,10,23,15,42,12.00
2008,10,23,15,43,12.00
2008,10,23,15,44,12.00
2008,10,23,15,45,12.00
2008,10,23,15,46,12.10
2008,10,23,15,47,12.10
2008,10,23,15,48,12.10
2008,10,23,15,49,12.10
2008,10,23,15,50,12.10
2008,10,23,15,51,12.10
2008,10,23,15,52,12.10
2008,10,23,15,53,12.20
2008,10,23,15,54,12.20
2008,10,23,15,55,12.20
2008,10,23,15,56,12.20
2008,10,23,15,57,12.20
2008,10,23,15,58,12.10
2008,10,23,15,59,12.10
2008,10,23,16,00,12.10
2008,10,23,16,01,12.10
2008,10,23,16,02,12.10
2008,10,23,16,03,12.10
2008,10,23,16,04,12.10
2008,10,23,16,05,12.10
2008,10,23,16,06,12.10
2008,10,23,16,07,12.10
2008,10,23,16,08,12.00
2008,10,23,16,09,12.00
2008,10,23,16,10,12.00
2008,10,23,16,11,11.90
2008,10,23,16,12,11.90
2008,10,23,16,13,11.80
2008,10,23,16,14,11.80
2008,10,23,16,15,11.80
2008,10,23,16,16,11.70
2008,10,23,16,17,11.70
2008,10,23,16,18,11.70
2008,10,23,16,19,11.70
2008,10,23,16,20,11.60
2008,10,23,16,21,11.60
2008,10,23,16,22,11.50
2008,10,23,16,23,11.50
2008,10,23,16,24,11.40
2008,10,23,16,25,11.40
2008,10,23,16,26,11.30
2008,10,23,16,27,11.30
2008,10,23,16,28,11.30
2008,10,23,16,29,11.20
2008,10,23,16,30,11.20
2008,10,23,16,31,11.20
2008,10,23,16,32,11.10
2008,10,23,16,33,11.10
2008,10,23,16,34,11.00
2008,10,23,16,35,11.00
2008,10,23,16,36,10.90
2008,10,23,16,37,10.90
2008,10,23,16,38,10.90
2008,10,23,16,39,10.90
2008,10,23,16,40,10.80
2008,10,23,16,41,10.80
2008,10,23,16,42,10.80
2008,10,23,16,43,10.70
2008,10,23,16,44,10.70
2008,10,23,16,45,10.70
2008,10,23,16,46,10.60
2008,10,23,16,47,10.60
2008,10,23,16,48,10.60
2008,10,23,16,49,10.60
2008,10,23,16,50,10.60
2008,10,23,16,51,10.60
2008,10,23,16,52,10.60
2008,10,23,16,53,10.60
2008,10,23,16,54,10.60
2008,10,23,16,55,10.60
2008,10,23,16,56,10.60
2008,10,23,16,57,10.60
2008,10,23,16,58,10.60
2008,10,23,16,59,10.60
2008,10,23,17,00,10.60
2008,10,23,17,01,10.60
2008,10,23,17,02,10.50
2008,10,23,17,03,10.50
2008,10,23,17,04,10.50
2008,10,23,17,05,10.50
2008,10,23,17,06,10.40
2008,10,23,17,07,10.40
2008,10,23,17,08,10.40
2008,10,23,17,09,10.40
2008,10,23,17,10,10.40
2008,10,23,17,11,10.40
2008,10,23,17,12,10.30
2008,10,23,17,13,10.30
2008,10,23,17,14,10.30
2008,10,23,17,15,10.30
2008,10,23,17,16,10.30
2008,10,23,17,17,10.30
2008,10,23,17,18,10.30
2008,10,23,17,19,10.30
2008,10,23,17,20,10.20
2008,10,23,17,21,10.20
2008,10,23,17,22,10.20
2008,10,23,17,23,10.20
2008,10,23,17,24,10.10
2008,10,23,17,25,10.10
2008,10,23,17,26,10.00
2008,10,23,17,27,10.00
2008,10,23,17,28,9.90
2008,10,23,17,29,9.90
2008,10,23,17,30,9.90
2008,10,23,17,31,9.80
2008,10,23,17,32,9.80
2008,10,23,17,33,9.70
2008,10,23,17,34,9.70
2008,10,23,17,35,9.60
2008,10,23,17,36,9.60
2008,10,23,17,37,9.50
2008,10,23,17,38,9.40
2008,10,23,17,39,9.40
2008,10,23,17,40,9.30
2008,10,23,17,41,9.20
2008,10,23,17,42,9.20
2008,10,23,17,43,9.10
2008,10,23,17,44,9.10
2008,10,23,17,45,9.00
2008,10,23,17,46,9.00
2008,10,23,17,47,8.90
2008,10,23,17,48,8.90